Ferguson, KY

8:39 PM EST on February 05, 2016 (GMT -0500)
Somerset-Pulaski County-Wilson

Weather History for KSME - February, 2013

Change the Weather History Date:

Tuesday, February 5, 2013

  Actual Average (KLOZ) Record (KLOZ)
Temperature  
Mean Temperature 47 °F 37 °F  
Max Temperature 53 °F 47 °F 70 °F (2008)
Min Temperature 41 °F 28 °F 3 °F (1965)
Degree Days  
Heating Degree Days 18 28  
Month to date heating degree days 140  
Since 1 July heating degree days 2703  
Cooling Degree Days 0 0  
Month to date cooling degree days 0  
Year to date cooling degree days 0  
Moisture  
Dew Point 33 °F    
Average Humidity 61    
Maximum Humidity 70    
Minimum Humidity 44    
Precipitation  
Precipitation 0.00 in 0.13 in 2.59 in (2004)
Month to date precipitation 0.64  
Year to date precipitation 4.18  
Sea Level Pressure  
Sea Level Pressure 29.95 in    
Wind  
Wind Speed 5 mph (WSW)    
Max Wind Speed 16 mph    
Max Gust Speed 21 mph    
Visibility 10 miles    
Events Rain    
T = Trace of Precipitation, MM = Missing Value Source: NWS Daily Summary

Daily Weather History Graph

Daily Weather History Graph

Search for Another Location

Airport or City:

Trip Planner

Search our weather history database for the weather conditions in past years. The results will help you decide how hot, cold, wet, or windy it might be!

Date:

Astronomy

Feb. 05, 2013 Rise Set
Actual Time 7:37 AM EST 6:08 PM EST
Civil Twilight 7:10 AM EST 6:35 PM EST
Nautical Twilight 6:39 AM EST 7:06 PM EST
Astronomical Twilight 6:08 AM EST 7:36 PM EST
Moon 3:15 AM EST (2/5) 1:27 PM EST (2/5)
Length of Visible Light 11h 25m
Length of Day
10h 30m
Waning Crescent, 27% of the Moon is Illuminated
Feb 5
Waning Crescent
Feb 10
New
Feb 17
First Quarter
Feb 25
Full
Mar 4
Last Quarter

Hourly Weather History & Observations

Time (EST) Temp. Windchill Dew Point Humidity Pressure Visibility Wind Dir Wind Speed Gust Speed Precip Events Conditions
12:15 AM 42.8 °F 41.1 °F 28.4 °F 57% 29.93 in 10.0 mi South 3.5 mph - N/A   Overcast
12:35 AM 42.8 °F - 30.2 °F 61% 29.93 in 10.0 mi Calm Calm - N/A   Overcast
12:55 AM 41.0 °F 39.0 °F 30.2 °F 65% 29.93 in 10.0 mi SSW 3.5 mph - N/A   Overcast
1:15 AM 41.0 °F 39.0 °F 30.2 °F 65% 29.93 in 10.0 mi SSW 3.5 mph - N/A Rain Light Rain
1:35 AM 42.8 °F 37.5 °F 32.0 °F 66% 29.93 in 10.0 mi WSW 9.2 mph - N/A   Light Drizzle
1:55 AM 42.8 °F 40.1 °F 32.0 °F 66% 29.92 in 10.0 mi West 4.6 mph - N/A   Overcast
2:15 AM 42.8 °F 41.1 °F 32.0 °F 66% 29.93 in 10.0 mi SW 3.5 mph - N/A   Overcast
2:35 AM 42.8 °F - 32.0 °F 66% 29.93 in 10.0 mi Calm Calm - N/A   Overcast
2:55 AM 42.8 °F 41.1 °F 32.0 °F 66% 29.92 in 10.0 mi SSW 3.5 mph - N/A   Overcast
3:15 AM 42.8 °F - 32.0 °F 66% 29.92 in 10.0 mi Calm Calm - N/A   Overcast
3:35 AM 42.8 °F 41.1 °F 32.0 °F 66% 29.93 in 10.0 mi WNW 3.5 mph - N/A   Overcast
3:55 AM 42.8 °F - 32.0 °F 66% 29.92 in 10.0 mi Calm Calm - N/A   Overcast
4:15 AM 42.8 °F - 32.0 °F 66% 29.91 in 10.0 mi Calm Calm - N/A   Overcast
4:35 AM 42.8 °F - 32.0 °F 66% 29.90 in 10.0 mi Calm Calm - N/A   Overcast
4:55 AM 42.8 °F - 32.0 °F 66% 29.91 in 10.0 mi Calm Calm - N/A   Overcast
5:15 AM 42.8 °F 41.1 °F 32.0 °F 66% 29.91 in 10.0 mi SW 3.5 mph - N/A   Overcast
5:35 AM 42.8 °F 41.1 °F 32.0 °F 66% 29.91 in 10.0 mi SW 3.5 mph - N/A   Overcast
5:55 AM 42.8 °F 40.1 °F 32.0 °F 66% 29.92 in 10.0 mi SW 4.6 mph - N/A   Overcast
6:15 AM 42.8 °F 40.1 °F 32.0 °F 66% 29.92 in 10.0 mi SW 4.6 mph - N/A   Overcast
6:35 AM 42.8 °F 40.1 °F 32.0 °F 66% 29.93 in 10.0 mi WSW 4.6 mph - N/A   Overcast
6:55 AM 42.8 °F 40.1 °F 32.0 °F 66% 29.93 in 10.0 mi SW 4.6 mph - N/A   Overcast
7:15 AM 42.8 °F 40.1 °F 32.0 °F 66% 29.93 in 10.0 mi WSW 4.6 mph - N/A   Overcast
7:35 AM 42.8 °F 39.3 °F 32.0 °F 66% 29.93 in 10.0 mi SW 5.8 mph - N/A   Overcast
7:55 AM 42.8 °F 39.3 °F 32.0 °F 66% 29.93 in 10.0 mi SW 5.8 mph - N/A   Overcast
8:15 AM 42.8 °F 38.6 °F 33.8 °F 70% 29.95 in 10.0 mi WSW 6.9 mph - N/A   Overcast
8:35 AM 42.8 °F 38.6 °F 33.8 °F 70% 29.96 in 10.0 mi WSW 6.9 mph - N/A   Overcast
8:55 AM 42.8 °F 38.6 °F 33.8 °F 70% 29.97 in 10.0 mi West 6.9 mph - N/A   Overcast
9:15 AM 44.6 °F 41.4 °F 33.8 °F 66% 29.97 in 10.0 mi WSW 5.8 mph - N/A   Overcast
9:35 AM 44.6 °F 41.4 °F 33.8 °F 66% 29.98 in 10.0 mi WSW 5.8 mph - N/A   Overcast
9:55 AM 44.6 °F 41.4 °F 33.8 °F 66% 29.98 in 10.0 mi WSW 5.8 mph - N/A   Overcast
10:15 AM 46.4 °F 43.5 °F 35.6 °F 66% 29.98 in 10.0 mi SW 5.8 mph - N/A   Overcast
10:35 AM 46.4 °F 40.7 °F 35.6 °F 66% 29.98 in 10.0 mi WSW 12.7 mph 19.6 mph N/A   Overcast
10:55 AM 46.4 °F 41.1 °F 35.6 °F 66% 29.98 in 10.0 mi West 11.5 mph 17.3 mph N/A   Overcast
11:15 AM 46.4 °F 41.5 °F 35.6 °F 66% 29.98 in 10.0 mi West 10.4 mph - N/A   Overcast
11:35 AM 46.4 °F 40.7 °F 35.6 °F 66% 29.99 in 10.0 mi West 12.7 mph - N/A   Overcast
11:55 AM 48.2 °F - 37.4 °F 66% 29.99 in 10.0 mi West 15.0 mph - N/A   Overcast
12:15 PM 50.0 °F - 35.6 °F 58% 29.99 in 10.0 mi West 16.1 mph 19.6 mph N/A   Overcast
12:35 PM 50.0 °F - 35.6 °F 58% 29.98 in 10.0 mi West 12.7 mph 16.1 mph N/A   Overcast
12:55 PM 50.0 °F - 35.6 °F 58% 29.98 in 10.0 mi WNW 11.5 mph - N/A   Scattered Clouds
1:15 PM 50.0 °F - 35.6 °F 58% 29.97 in 10.0 mi West 13.8 mph - N/A   Mostly Cloudy
1:35 PM 50.0 °F - 35.6 °F 58% 29.97 in 10.0 mi West 11.5 mph - N/A   Scattered Clouds
1:55 PM 51.8 °F - 35.6 °F 54% 29.95 in 10.0 mi West 11.5 mph - N/A   Clear
2:15 PM 50.0 °F - 35.6 °F 58% 29.95 in 10.0 mi West 10.4 mph - N/A   Clear
2:35 PM 51.8 °F - 33.8 °F 50% 29.94 in 10.0 mi WSW 15.0 mph 19.6 mph N/A   Clear
2:55 PM 51.8 °F - 33.8 °F 50% 29.94 in 10.0 mi SW 9.2 mph 20.7 mph N/A   Clear
3:15 PM 51.8 °F - 33.8 °F 50% 29.93 in 10.0 mi SW 11.5 mph - N/A   Clear
3:35 PM 53.6 °F - 33.8 °F 47% 29.93 in 10.0 mi WSW 15.0 mph - N/A   Clear
3:55 PM 53.6 °F - 33.8 °F 47% 29.93 in 10.0 mi WSW 11.5 mph - N/A   Clear
4:15 PM 53.6 °F - 32.0 °F 44% 29.94 in 10.0 mi WSW 11.5 mph 18.4 mph N/A   Clear
4:35 PM 53.6 °F - 33.8 °F 47% 29.94 in 10.0 mi WSW 10.4 mph - N/A   Clear
4:55 PM 51.8 °F - 32.0 °F 47% 29.93 in 10.0 mi West 9.2 mph 16.1 mph N/A   Clear
5:15 PM 53.6 °F - 32.0 °F 44% 29.93 in 10.0 mi WSW 9.2 mph - N/A   Clear
5:35 PM 51.8 °F - 33.8 °F 50% 29.93 in 10.0 mi WSW 6.9 mph - N/A   Clear
5:55 PM 51.8 °F - 33.8 °F 50% 29.93 in 10.0 mi SW 4.6 mph - N/A   Clear
6:15 PM 50.0 °F - 33.8 °F 54% 29.93 in 10.0 mi SW 4.6 mph - N/A   Clear
6:35 PM 48.2 °F - 33.8 °F 58% 29.93 in 10.0 mi SW 4.6 mph - N/A   Clear
6:55 PM 46.4 °F 44.3 °F 33.8 °F 62% 29.94 in 10.0 mi SW 4.6 mph - N/A   Clear
7:15 PM 46.4 °F 43.5 °F 32.0 °F 57% 29.95 in 10.0 mi SW 5.8 mph - N/A   Clear
7:35 PM 46.4 °F 43.5 °F 32.0 °F 57% 29.95 in 10.0 mi SW 5.8 mph - N/A   Clear
7:55 PM 46.4 °F 44.3 °F 32.0 °F 57% 29.95 in 10.0 mi SW 4.6 mph - N/A   Clear
8:15 PM 44.6 °F 42.2 °F 32.0 °F 61% 29.96 in 10.0 mi SW 4.6 mph - N/A   Clear
8:35 PM 44.6 °F 41.4 °F 32.0 °F 61% 29.96 in 10.0 mi WSW 5.8 mph - N/A   Clear
8:55 PM 44.6 °F 41.4 °F 32.0 °F 61% 29.97 in 10.0 mi West 5.8 mph - N/A   Clear
9:15 PM 44.6 °F 41.4 °F 32.0 °F 61% 29.98 in 10.0 mi West 5.8 mph - N/A   Clear
9:35 PM 42.8 °F 40.1 °F 32.0 °F 66% 29.99 in 10.0 mi WNW 4.6 mph - N/A   Clear
9:55 PM 44.6 °F 42.2 °F 32.0 °F 61% 30.01 in 10.0 mi WNW 4.6 mph - N/A   Clear
10:15 PM 44.6 °F 40.7 °F 32.0 °F 61% 30.02 in 10.0 mi WNW 6.9 mph - N/A   Clear
10:35 PM 44.6 °F 41.4 °F 32.0 °F 61% 30.03 in 10.0 mi WNW 5.8 mph - N/A   Clear
10:55 PM 44.6 °F 42.2 °F 32.0 °F 61% 30.03 in 10.0 mi WNW 4.6 mph - N/A   Clear
11:15 PM 42.8 °F 41.1 °F 32.0 °F 66% 30.04 in 10.0 mi WNW 3.5 mph - N/A   Clear
11:35 PM 42.8 °F 41.1 °F 32.0 °F 66% 30.05 in 10.0 mi NW 3.5 mph - N/A   Clear
11:55 PM 42.8 °F - 30.2 °F 61% 30.05 in 10.0 mi Calm Calm - N/A   Clear